Location: Newark
(38.8913°N, 77.0259°W)
Time: 13:58:14
(UTC+00:00)

LightSail 2 - Visible Passes

Search period start: 06 December 2019 00:00
Search period end: 16 December 2019 00:00
Orbit: 695 x 731 km, 24.0° (Epoch: 05 December)

Date Brightness Start Highest point End Pass type
(mag) Time Alt. Az. Time Alt. Az. Time Alt. Az.
06 Dec 7.4 00:03:54 10° SW 00:06:25 14° S 00:07:35 13° S visible
06 Dec 7.5 23:05:48 10° SW 23:08:35 15° S 23:11:22 10° SSE visible
07 Dec 7.7 23:53:46 10° SSW 23:55:25 11° SSW 23:57:05 10° S visible
08 Dec 7.7 22:55:13 10° SW 22:57:35 13° S 22:59:58 10° SSE visible
10 Dec 8.0 22:45:27 10° SSW 22:46:32 11° SSW 22:47:37 10° S visible
